• Join FlightAware (Why Join?)
  • Login
  • US Flag 
07:26AM EDT


 

Airport Tracker/Info


-or-


 

Live Flight TrackerFlight Track Log ✈ N400CE ✈ 18-Nov-2013 ✈ KAVL - KAPF

Flight Track Log - Related Links

Times and Time Zones

All times are in EST time to prevent confusion due to time zone crossing. See the N400CE flight status page for this flight to view local times or setup timezone preferences in your user account.

Time Position Orientation Groundspeed Altitude Reporting Facility
EST Latitude Longitude Course Direction KTS MPH feet Rate Location/Type
12:42PM 35.4686 -82.6644 180° South 186 214 6,600  Level Atlanta Center
12:43PM 35.4289 -82.6522 166° South 136 157 7,500 720 Climbing Atlanta Center
12:44PM 35.1410 -82.5149 180° South  Level Estimated
12:44PM 35.3911 -82.6478 175° South 142 163 8,100  Level Atlanta Center
12:45PM 35.3494 -82.6408 172° South 142 163 8,900 780 Climbing Atlanta Center
12:46PM 35.3075 -82.6389 178° South 142 163 9,700 600 Climbing Atlanta Center
12:47PM 35.2658 -82.6372 178° South 142 163 10,100 420 Climbing Atlanta Center
12:48PM 35.2178 -82.6406 183° South 148 170 10,600 480 Climbing Atlanta Center
12:49PM 35.1739 -82.6286 167° South 158 182 11,100 480 Climbing Atlanta Center
12:50PM 35.1300 -82.6217 173° South 163 188 11,600 540 Climbing Atlanta Center
12:51PM 35.0864 -82.6225 181° South 163 188 12,200 600 Climbing Atlanta Center
12:52PM 35.0403 -82.6181 175° South 158 182 12,800 540 Climbing Atlanta Center
12:53PM 34.9986 -82.6111 172° South 158 182 13,300 600 Climbing Atlanta Center
12:54PM 34.9525 -82.6094 178° South 158 182 14,000 600 Climbing Atlanta Center
12:55PM 34.9067 -82.6028 173° South 158 182 14,600 600 Climbing Atlanta Center
12:56PM 34.8647 -82.5958 172° South 158 182 15,200 600 Climbing Atlanta Center
12:57PM 34.8208 -82.5889 173° South 158 182 15,800 600 Climbing Atlanta Center
12:58PM 34.7769 -82.5847 176° South 158 182 16,400 480 Climbing Atlanta Center
12:59PM 34.7331 -82.5778 173° South 158 182 16,800 300 Climbing Atlanta Center
01:00PM 34.6869 -82.5711 173° South 163 188 17,100 60 Climbing Atlanta Center
01:01PM 34.6308 -82.5694 179° South 175 201 17,000 -60 Descending Atlanta Center
01:02PM 34.5806 -82.5653 176° South 180 207 17,000  Level Atlanta Center
01:03PM 34.5283 -82.5639 179° South 180 207 17,000  Level Atlanta Center
01:04PM 34.4761 -82.5572 174° South 180 207 17,000  Level Atlanta Center
01:05PM 34.4219 -82.5531 176° South 185 213 17,000  Level Atlanta Center
01:06PM 34.3717 -82.5489 176° South 185 213 17,000  Level Atlanta Center
01:07PM 34.3175 -82.5447 176° South 185 213 17,000  Level Atlanta Center
01:08PM 34.2631 -82.5408 177° South 196 226 17,000  Level Atlanta Center
01:09PM 34.2108 -82.5367 176° South 196 226 17,000  Level Atlanta Center
01:10PM 34.1586 -82.5325 176° South 196 226 17,000  Level Atlanta Center
01:11PM 34.0958 -82.5311 179° South 203 234 17,000  Level Atlanta Center
01:12PM 34.0436 -82.5247 174° South 203 234 17,000  Level Atlanta Center
01:13PM 33.9914 -82.5181 174° South 194 223 17,000  Level Atlanta Center
01:14PM 33.9392 -82.5139 176° South 194 223 17,000  Level Atlanta Center
01:15PM 33.8869 -82.5050 172° South 204 235 17,000  Level Atlanta Center
01:16PM 33.8325 -82.5008 176° South 204 235 17,000  Level Atlanta Center
01:17PM 33.7825 -82.4967 176° South 188 216 17,000  Level Atlanta Center
01:18PM 33.7219 -82.4928 177° South 209 241 17,000  Level Atlanta Center
01:19PM 33.6675 -82.4864 174° South 198 228 17,000  Level Atlanta Center
01:20PM 33.6089 -82.4800 175° South 198 228 17,000  Level Atlanta Center
01:21PM 33.5589 -82.4733 174° South 193 222 17,100  Climbing Atlanta Center
01:22PM 33.5067 -82.4642 172° South 198 228 17,100  Level Atlanta Center
01:23PM 33.4500 -82.4578 175° South 203 234 17,100 -60 Level Atlanta Center
01:24PM 33.3958 -82.4514 174° South 203 234 17,000  Descending Atlanta Center
01:25PM 33.3394 -82.4475 177° South 198 228 17,100  Climbing Atlanta Center
01:26PM 33.2869 -82.4358 169° South 192 221 17,100  Level Atlanta Center
01:27PM 33.2328 -82.4319 177° South 197 227 17,100 -60 Level Atlanta Center
01:28PM 33.1806 -82.4281 176° South 202 232 17,000  Descending Atlanta Center
01:29PM 33.1261 -82.4217 174° South 202 232 17,100  Climbing Atlanta Center
01:30PM 33.0717 -82.4153 174° South 202 232 17,000 -60 Descending Atlanta Center
01:31PM 33.0175 -82.4111 176° South 197 227 17,000  Level Atlanta Center
01:32PM 32.9653 -82.4072 176° South 197 227 17,100  Climbing Atlanta Center
01:33PM 32.9086 -82.4008 175° South 197 227 17,000 -60 Descending Atlanta Center
01:34PM 32.8564 -82.3944 174° South 197 227 17,000  Level Atlanta Center
01:35PM 32.8042 -82.3928 178° South 197 227 17,100  Climbing Atlanta Center
01:36PM 32.7478 -82.3867 175° South 197 227 17,000 -60 Descending Atlanta Center
01:37PM 32.6956 -82.3778 172° South 197 227 17,000  Level Atlanta Center
01:39PM 32.6039 -82.3647 173° South 198 228 17,000  Level Jacksonville Center
01:40PM 32.5517 -82.3628 178° South 198 228 17,000  Level Jacksonville Center
01:41PM 32.4972 -82.3581 176° South 198 228 17,000  Level Jacksonville Center
01:42PM 32.4450 -82.3511 174° South 198 228 17,000  Level Jacksonville Center
01:43PM 32.3928 -82.3439 173° South 198 228 17,000  Level Jacksonville Center
01:44PM 32.3386 -82.3247 163° South 198 228 17,000  Level Jacksonville Center
01:45PM 32.2861 -82.3003 159° South 206 237 17,000  Level Jacksonville Center
01:46PM 32.2361 -82.2811 162° South 206 237 17,000  Level Jacksonville Center
01:47PM 32.1794 -82.2569 160° South 206 237 17,000  Level Jacksonville Center
01:48PM 32.1314 -82.2350 159° South 206 237 17,000  Level Jacksonville Center
01:49PM 32.0728 -82.2111 161° South 206 237 17,000  Level Jacksonville Center
01:50PM 32.0164 -82.1869 160° South 206 237 17,000  Level Jacksonville Center
01:51PM 31.9683 -82.1678 161° South 206 237 17,000  Level Jacksonville Center
01:52PM 31.9075 -82.1436 161° South 206 237 17,000  Level Jacksonville Center
01:53PM 31.8531 -82.1222 162° South 211 243 17,000  Level Jacksonville Center
01:54PM 31.8050 -82.1006 159° South 206 237 17,000  Level Jacksonville Center
01:55PM 31.7464 -82.0767 161° South 206 237 17,000  Level Jacksonville Center
01:56PM 31.6961 -82.0550 160° South 206 237 17,000  Level Jacksonville Center
01:57PM 31.6375 -82.0286 159° South 206 237 17,000 -120 Level Jacksonville Center
01:58PM 31.5808 -82.0072 162° South 206 237 16,800 -240 Descending Jacksonville Center
01:59PM 31.5306 -81.9883 162° South 215 247 16,600 -240 Descending Jacksonville Center
02:00PM 31.4658 -81.9622 161° South 215 247 16,400 -240 Descending Jacksonville Center
02:01PM 31.4156 -81.9481 166° South 220 253 16,200 -180 Descending Jacksonville Center
02:02PM 31.3592 -81.9292 164° South 220 253 16,100 -60 Descending Jacksonville Center
02:03PM 31.3044 -81.8933 151° Southeast 220 253 16,100  Level Jacksonville Center
02:04PM 31.2542 -81.8550 147° Southeast 220 253 16,100  Level Jacksonville Center
02:05PM 31.2078 -81.8142 143° Southeast 220 253 16,100  Level Jacksonville Center
02:06PM 31.1572 -81.7758 147° Southeast 220 253 16,100  Level Jacksonville Center
02:07PM 31.1069 -81.7375 147° Southeast 214 246 16,100  Level Jacksonville Center
02:08PM 31.0564 -81.6994 147° Southeast 214 246 16,100  Level Jacksonville Center
02:09PM 31.0081 -81.6686 151° Southeast 214 246 16,100  Level Jacksonville Center
02:10PM 30.9619 -81.6328 146° Southeast 209 241 16,100 -60 Level Jacksonville Center
02:11PM 30.9175 -81.5969 145° Southeast 204 235 16,000  Descending Jacksonville Center
02:12PM 30.8733 -81.5589 144° Southeast 198 228 16,100  Climbing Jacksonville Center
02:13PM 30.8250 -81.5258 150° Southeast 192 221 16,100  Level Jacksonville Center
02:14PM 30.7808 -81.4900 145° Southeast 192 221 16,100  Level Jacksonville Center
02:15PM 30.7344 -81.4569 149° Southeast 192 221 16,100  Level Jacksonville Center
02:16PM 30.6844 -81.4578 181° South 174 200 16,100  Level Jacksonville Center
02:17PM 30.6342 -81.4586 181° South 174 200 16,100  Level Jacksonville Center
02:18PM 30.5822 -81.4664 187° South 185 213 16,100  Level Jacksonville Center
02:19PM 30.5300 -81.4722 185° South 185 213 16,100  Level Jacksonville Center
02:20PM 30.4778 -81.4728 181° South 190 219 16,100  Level Jacksonville Center
02:21PM 30.4278 -81.4761 183° South 190 219 16,100  Level Jacksonville Center
02:22PM 30.3778 -81.4911 195° South 190 219 16,100 -60 Level Jacksonville Center
02:23PM 30.3300 -81.5039 193° South 185 213 16,000 -60 Descending Jacksonville Center
02:24PM 30.2800 -81.5142 190° South 185 213 16,000  Level Jacksonville Center
02:25PM 30.2300 -81.5269 192° South 185 213 16,100  Climbing Jacksonville Center
02:26PM 30.1822 -81.5494 202° Southwest 185 213 16,100  Level Jacksonville Center
02:27PM 30.1344 -81.5739 204° Southwest 190 219 16,100  Level Jacksonville Center
02:28PM 30.0867 -81.5964 202° Southwest 190 219 16,100  Level Jacksonville Center
02:29PM 30.0389 -81.6161 200° South 190 219 16,100  Level Jacksonville Center
02:30PM 29.9931 -81.6408 205° Southwest 190 219 16,100 -60 Level Jacksonville Center
02:31PM 29.9494 -81.6700 210° Southwest 190 219 16,000  Descending Jacksonville Center
02:32PM 29.9081 -81.6969 209° Southwest 190 219 16,100  Climbing Jacksonville Center
02:33PM 29.8644 -81.7286 212° Southwest 179 206 16,100 -60 Level Jacksonville Center
02:34PM 29.8208 -81.7578 210° Southwest 179 206 16,000 -60 Descending Jacksonville Center
02:35PM 29.7775 -81.7869 210° Southwest 179 206 16,000  Level Jacksonville Center
02:36PM 29.7358 -81.8161 211° Southwest 179 206 16,000  Level Jacksonville Center
02:37PM 29.6922 -81.8453 210° Southwest 179 206 16,000 60 Level Jacksonville Center
02:38PM 29.6486 -81.8722 208° Southwest 179 206 16,200 180 Climbing Jacksonville Center
02:39PM 29.6050 -81.8964 206° Southwest 179 206 16,400 180 Climbing Jacksonville Center
02:40PM 29.5633 -81.9208 207° Southwest 179 206 16,600 120 Climbing Jacksonville Center
02:41PM 29.5153 -81.9214 181° South 169 194 16,700 120 Climbing Jacksonville Center
02:42PM 29.4611 -81.9100 170° South 169 194 16,900 180 Climbing Jacksonville Center
02:43PM 29.4108 -81.9056 176° South 179 206 17,100  Climbing Jacksonville Center
02:44PM 29.3567 -81.8989 174° South 185 213 17,000 -60 Descending Jacksonville Center
02:45PM 29.3022 -81.8947 176° South 196 226 17,000  Level Jacksonville Center
02:46PM 29.2458 -81.8906 176° South 196 226 17,000  Level Jacksonville Center
02:47PM 29.2000 -81.8817 170° South 196 226 17,000  Level Jacksonville Center
02:48PM 29.1436 -81.8822 180° South 196 226 17,000 -60 Level Jacksonville Center
02:49PM 29.0914 -81.8731 171° South 196 226 16,900  Descending Jacksonville Center
02:50PM 29.0328 -81.8689 176° South 196 226 17,000  Climbing Jacksonville Center
02:51PM 28.9828 -81.8625 174° South 196 226 17,000  Level Jacksonville Center
02:52PM 28.9219 -81.8558 175° South 196 226 17,000  Level Jacksonville Center
02:53PM 28.8719 -81.8494 174° South 196 226 17,000  Level Jacksonville Center
02:54PM 28.8175 -81.8406 172° South 196 226 17,000  Level Jacksonville Center
02:55PM 28.7675 -81.8339 173° South 196 226 17,000 -180 Level Jacksonville Center
02:56PM 28.7111 -81.8275 174° South 196 226 16,700 -420 Descending Jacksonville Center
02:57PM 28.6547 -81.8256 178° South 201 231 16,200 -120 Descending Jacksonville Center
02:58PM 28.6003 -81.8239 178° South 201 231 16,500 60 Climbing Jacksonville Center
02:59PM 28.5503 -81.8197 176° South 194 223 16,400 -60 Descending Jacksonville Center
03:00PM 28.4919 -81.8225 182° South 194 223 16,400  Level Jacksonville Center
03:01PM 28.4192 -81.8225 180° South 198 228 16,400  Level Miami Center
03:02PM 28.3631 -81.8225 180° South 198 228 16,400  Level Miami Center
03:03PM 28.3108 -81.8225 180° South 198 228 16,500  Climbing Miami Center
03:04PM 28.2586 -81.8225 180° South 198 228 16,500  Level Miami Center
03:05PM 28.2044 -81.8203 178° South 198 228 16,500  Level Miami Center
03:06PM 28.1522 -81.8203 180° South 198 228 16,500  Level Miami Center
03:07PM 28.0981 -81.8203 180° South 198 228 16,500  Level Miami Center
03:08PM 28.0439 -81.8203 180° South 198 228 16,500  Level Miami Center
03:09PM 27.9897 -81.8203 180° South 198 228 16,500  Level Miami Center
03:10PM 27.9353 -81.8203 180° South 198 228 16,500  Level Miami Center
03:11PM 27.8811 -81.8200 180° South 198 228 16,500  Level Miami Center
03:12PM 27.8269 -81.8200 180° South 198 228 16,500  Level Miami Center
03:13PM 27.7642 -81.8197 180° South 198 228 16,500  Level Miami Center
03:14PM 27.7100 -81.8219 182° South 198 228 16,500  Level Miami Center
03:15PM 27.6556 -81.8219 180° South 198 228 16,500  Level Miami Center
03:16PM 27.6056 -81.8222 180° South 198 228 16,500  Level Miami Center
03:17PM 27.5431 -81.8219 180° South 198 228 16,500 -240 Level Miami Center
03:18PM 27.4867 -81.8217 180° South 198 228 16,100 -600 Descending Miami Center
03:19PM 27.4261 -81.8239 182° South 203 234 15,300 -780 Descending Miami Center
03:20PM 27.3633 -81.8258 182° South 219 252 14,600 -600 Descending Miami Center
03:21PM 27.3028 -81.8303 184° South 219 252 14,100 -600 Descending Miami Center
03:22PM 27.2442 -81.8322 182° South 219 252 13,400 -840 Descending Miami Center
03:23PM 27.1814 -81.8367 184° South 219 252 12,500 -1,020 Descending Miami Center
03:24PM 27.1208 -81.8386 182° South 219 252 11,400 -1,020 Descending Miami Center
03:25PM 27.0581 -81.8406 182° South 219 252 10,500 -1,200 Descending Miami Center
03:26PM 26.9975 -81.8475 186° South 224 258 9,100 -1,320 Descending Miami Center
03:27PM 26.9347 -81.8517 183° South 224 258 7,900 -1,320 Descending Miami Center
03:28PM 26.8719 -81.8558 183° South 230 265 6,500 -1,440 Descending Miami Center
03:29PM 26.8097 -81.8394 167° South 230 265 5,100 -1,200 Descending Miami Center
03:30PM 26.7542 -81.8208 163° South 230 265 4,100 -840 Descending Miami Center
03:31PM 26.7003 -81.8044 165° South 215 247 3,500 -600 Descending Miami Center
03:33PM 26.6329 -81.7938 172° South  Level FlightAware Approximate
03:40PM 26.2808 -81.7667 180° South  Level FlightAware Approximate
03:41PM 26.2303 -81.7667 180° South  Level FlightAware Approximate
03:42PM 26.1799 -81.7667 180° South  Level FlightAware Approximate
03:43PM 26.1500 -81.7667 180° South  Level FlightAware Approximate
03:44PM 26.1524 -81.7756 180° South  Level Estimated
03:45PM 26.1524 -81.7756 180° South  Level Estimated
03:46PM 26.1524 -81.7756 180° South  Level Estimated
03:47PM 26.1524 -81.7756 180° South  Level Estimated
03:48PM 26.1524 -81.7756 180° South  Level Estimated
03:49PM 26.1524 -81.7756 180° South  Level Estimated
03:50PM 26.1524 -81.7756 180° South  Level Estimated
03:51PM 26.1524 -81.7756 180° South  Level Estimated
03:52PM 26.1524 -81.7756 180° South  Level Estimated
03:53PM 26.1524 -81.7756 180° South  Level Estimated